Exeter, United Kingdom

11:26 PM GMT on November 24, 2017 (GMT +0000)
Exeter

Weather History for EGTE - October, 2013

Change the Weather History Date:

Tuesday, October 15, 2013

  Actual Average Record
Temperature  
Mean Temperature 50 °F -  
Max Temperature 62 °F 54 °F 123 °F (2002)
Min Temperature 37 °F 42 °F -50 °F (2002)
Degree Days  
Heating Degree Days 16    
Moisture  
Dew Point 45 °F    
Average Humidity 87    
Maximum Humidity 100    
Minimum Humidity 53    
Precipitation  
Precipitation 0.00 in - - ()
Sea Level Pressure  
Sea Level Pressure 29.86 in    
Wind  
Wind Speed 3 mph ()    
Max Wind Speed 6 mph    
Max Gust Speed -    
Visibility 4.7 miles    
Events Fog    
Averages and records for this station are not official NWS values.
T = Trace of Precipitation, MM = Missing Value Source: Averaged Metar Reports

Daily Weather History Graph

Daily Weather History Graph

Search for Another Location

Airport or City:

Trip Planner

Search our weather history database for the weather conditions in past years. The results will help you decide how hot, cold, wet, or windy it might be!

Date:

Astronomy

Oct. 15, 2013 Rise Set
Actual Time 7:36 AM BST 6:21 PM BST
Civil Twilight 7:03 AM BST 6:54 PM BST
Nautical Twilight 6:25 AM BST 7:32 PM BST
Astronomical Twilight 5:47 AM BST 8:10 PM BST
Moon 4:36 PM BST (10/15) 3:21 AM BST (10/15)
Length of Visible Light 11h 50m
Length of Day
10h 44m
Waxing Gibbous, 86% of the Moon is Illuminated
Oct 15
Waxing Gibbous
Oct 19
Full
Oct 27
Last Quarter
Nov 3
New
Nov 10
First Quarter

Hourly Weather History & Observations

Time (BST) Temp. Windchill Dew Point Humidity Pressure Visibility Wind Dir Wind Speed Gust Speed Precip Events Conditions
12:50 AM 43 °F - 42 °F 95%  in - Calm Calm - -  
12:50 AM 44.6 °F 41.4 °F 42.8 °F 93% 29.83 in - ENE 5.8 mph - N/A   Clear
1:20 AM 42.8 °F 39.3 °F 41.0 °F 93% 29.83 in - ENE 5.8 mph - N/A   Clear
1:50 AM 42.8 °F 41.1 °F 42.8 °F 100% 29.83 in - South 3.5 mph - N/A   Clear
2:20 AM 42.8 °F - 42.8 °F 100% 29.86 in - ESE 2.3 mph - N/A   Clear
5:50 AM 39.2 °F - 37.4 °F 93% 29.80 in 6.2 mi Variable 2.3 mph - N/A Fog Unknown
6:20 AM 37.4 °F 33.8 °F 37.4 °F 100% 29.83 in 1.2 mi WSW 4.6 mph - N/A   Mist
6:50 AM 37.4 °F 34.9 °F 37.4 °F 100% 29.83 in 0.2 mi NE 3.5 mph - N/A Fog Fog
7:20 AM 37.4 °F - 37.4 °F 100% 29.83 in 0.2 mi East 2.3 mph - N/A Fog Fog
7:50 AM 37.4 °F 33.8 °F 37.4 °F 100% 29.83 in 0.2 mi NE 4.6 mph - N/A Fog Fog
8:20 AM 37.4 °F - 37.4 °F 100% 29.83 in 0.9 mi NE 2.3 mph - N/A   Mist
8:50 AM 39.2 °F - 39.2 °F 100% 29.83 in 0.9 mi Variable 1.2 mph - N/A   Scattered Clouds
9:20 AM 41.0 °F 39.0 °F 41.0 °F 100% 29.83 in 3.1 mi Variable 3.5 mph - N/A   Partly Cloudy
9:50 AM 44 °F - 44 °F 99%  in - Calm Calm - -  
9:50 AM 42.8 °F - 42.8 °F 100% 29.83 in 3.7 mi Variable 1.2 mph - N/A   Partly Cloudy
10:20 AM 42.8 °F - 42.8 °F 100% 29.86 in 3.7 mi Variable 1.2 mph - N/A   Partly Cloudy
10:50 AM 46.4 °F - 46.4 °F 100% 29.86 in 5.0 mi Variable 2.3 mph - N/A   Partly Cloudy
11:20 AM 48.2 °F - 48.2 °F 100% 29.86 in 6.2 mi Variable 3.5 mph - N/A   Partly Cloudy
11:50 AM 50.0 °F - 50.0 °F 100% 29.86 in 6.2 mi Variable 3.5 mph - N/A   Partly Cloudy
12:20 PM 53.6 °F - 51.8 °F 94% 29.86 in 6.2 mi Variable 2.3 mph - N/A   Partly Cloudy
12:50 PM 58 °F - 49 °F 63%  in - Calm Calm - -  
12:50 PM 57.2 °F - 50.0 °F 77% 29.86 in 6.2 mi Variable 2.3 mph - N/A   Partly Cloudy
1:20 PM 59.0 °F - 50.0 °F 72% 29.86 in 6.2 mi Variable 2.3 mph - N/A   Partly Cloudy
1:50 PM 59.0 °F - 50.0 °F 72% 29.83 in 6.2 mi Variable 2.3 mph - N/A   Partly Cloudy
2:20 PM 59.0 °F - 48.2 °F 67% 29.83 in 6.2 mi Variable 3.5 mph - N/A   Partly Cloudy
2:50 PM 60.8 °F - 48.2 °F 63% 29.83 in 6.2 mi Variable 2.3 mph - N/A   Partly Cloudy
3:20 PM 59.0 °F - 48.2 °F 67% 29.86 in 6.2 mi Variable 3.5 mph - N/A   Partly Cloudy
3:50 PM 60 °F - 47 °F 53%  in - Calm Calm - -  
3:50 PM 60.8 °F - 48.2 °F 63% 29.83 in 6.2 mi Variable 2.3 mph - N/A   Partly Cloudy
4:20 PM 60.8 °F - 48.2 °F 63% 29.83 in 6.2 mi Variable 4.6 mph - N/A   Partly Cloudy
4:50 PM 60.8 °F - 46.4 °F 59% 29.83 in 6.2 mi Variable 1.2 mph - N/A   Partly Cloudy
5:20 PM 59.0 °F - 50.0 °F 72% 29.83 in 6.2 mi SSW 3.5 mph - N/A   Partly Cloudy
5:50 PM 57.2 °F - 50.0 °F 77% 29.86 in 6.2 mi SSW 4.6 mph - N/A   Partly Cloudy
6:20 PM 53.6 °F - 46.4 °F 77% 29.86 in 6.2 mi East 5.8 mph - N/A   Partly Cloudy
6:50 PM 50 °F - 44 °F 73%  in - Calm Calm - -  
6:50 PM 51.8 °F - 46.4 °F 82% 29.86 in 6.2 mi East 3.5 mph - N/A   Partly Cloudy
7:20 PM 50.0 °F - 46.4 °F 87% 29.89 in 6.2 mi North 1.2 mph - N/A   Partly Cloudy
7:50 PM 50.0 °F - 46.4 °F 87% 29.89 in - NE 2.3 mph - N/A   Clear
8:20 PM 48.2 °F - 44.6 °F 87% 29.89 in - Calm Calm - N/A   Clear
8:50 PM 46.4 °F - 44.6 °F 93% 29.89 in - NE 2.3 mph - N/A   Clear
9:20 PM 44.6 °F 43.1 °F 42.8 °F 93% 29.92 in - NE 3.5 mph - N/A   Clear
9:50 PM 44 °F - 44 °F 98%  in - Calm Calm - -  
9:50 PM 44.6 °F - 44.6 °F 100% 29.92 in - Calm Calm - N/A   Clear
10:20 PM 44.6 °F - 42.8 °F 93% 29.92 in - Calm Calm - N/A   Clear
10:50 PM 44.6 °F 43.1 °F 44.6 °F 100% 29.92 in - NNE 3.5 mph - N/A   Clear
11:20 PM 44.6 °F - 42.8 °F 93% 29.92 in - Variable 2.3 mph - N/A   Clear
11:50 PM 44.6 °F 43.1 °F 42.8 °F 93% 29.92 in - North 3.5 mph - N/A   Clear